Back to catalog

ARIANE 1 DEB

AliveHEO
NORAD 40780·DEBRIS·🇫🇷 France

Launched Dec 24, 1979 from Guiana Space Centre

Loading…

Next Passes (next 24 hours)

TLE

FreshSource: Space-Track

Epoch: Sep 6, 2026, 03:46 UTC

1 40780U 79104AH  26249.15731022 -.00000054  00000-0  33747-4 0  9992
2 40780  19.2003 206.3584 5912890 170.6790 208.9641  3.90296258333977

Track ARIANE 1 DEB in real time with AllMySat

Download on the App Store